Regional Weather Roundup
Issued by NWS Grand Forks, ND

Home | Current Version | Previous Version | Graphics & Text | Print | Product List | Glossary On
Versions: 1 2 3 4 5 6 7 8 9 10 11 12 13 14 15 16 17 18 19 20 21 22 23 24 25 26 27 28 29 30 31 32 33 34 35 36 37 38 39 40 41 42 43 44 45 46 47 48 49 50
000
ASUS43 KFGF 031710
RWRFGF
PRAIRIE TO PINES  WEATHER ROUNDUP
NATIONAL WEATHER SERVICE EASTERN NORTH DAKOTA/GRAND FORKS ND
1200 PM CDT THU SEP 03 2015

 **SATELLITE DATA USED TO AUGMENT SKY COVER AT AUTOMATED STATIONS**
 *****  WEATHER ACROSS EASTERN NORTH DAKOTA  *****

CITY           SKY/WX    TMP DP  RH WIND       PRES   REMARKS
GRAND FORKS    MOSUNNY   83  71  67 S17       29.75F
GRAND FRKS AFB CLOUDY    77  70  79 S22G28    29.76S
GRAND FRKS NWS   N/A     81 N/A N/A SE16        N/A
DEVILS LAKE    PTSUNNY   79  66  65 SE20      29.71F
FARGO          SUNNY     85  71  63 SE20G30   29.78F HX  90
WAHPETON ARPT  SUNNY     81  68  65 S18       29.82S
$$

 ***** WEATHER ACROSS CENTRAL AND WESTERN NORTH DAKOTA  *****

CITY           SKY/WX    TMP DP  RH WIND       PRES   REMARKS
BISMARCK       SUNNY     86  64  47 SE8       29.69F
MINOT          SUNNY     83  68  60 SE10      29.64F
JAMESTOWN      SUNNY     83  70  64 SE15G23   29.74S
MINOT AFB      MOSUNNY   83  75  76 SE10G20   29.64F HX  90
GARRISON         N/A     82  66  58 S10       29.67F
WILLISTON      MOSUNNY   80  62  54 NE7       29.70R
DICKINSON      SUNNY     85  47  26 W7        29.70R
HETTINGER      SUNNY     88  45  22 W9        29.74S
$$

 *****  OTHER AIRPORT OBSERVATIONS IN OUR AREA  *****

CITY           SKY/WX    TMP DP  RH WIND       PRES   REMARKS
WALHALLA       FAIR      73  73 100 MISG      29.74S
GRAFTON AIRPOR FAIR      81  72  74 S22       29.75F
VALLEY CITY AR FAIR      81  77  89 SE18G24   29.77F
CANDO          NOT AVBL
CAVALIER APRT  CLOUDY    75  70  83 S17G28    29.74F
GWINNER          N/A     82  82 100 SE15      29.78F HX  97
ROLLA          CLOUDY    77  68  73 S16G22    29.73F
 ***** THE ABOVE OBSERVATIONS ARE NON NWS ARE NOT QUALITY
       CONTROLLED AND MAY MIS-REPORT RAIN FOR SNOW...
$$

  *****  WEATHER ACROSS NORTHERN MINNESOTA  *****

CITY           SKY/WX    TMP DP  RH WIND       PRES   REMARKS
FLAG ISLAND    CLOUDY    70  64  83 S16G22    29.87S
WARROAD        MOSUNNY   75  70  83 SE14      29.86F
ROSEAU         SUNNY     79  70  73 SE16      29.84F
HALLOCK        SUNNY     84  72  65 S24       29.75F
THF RVR FALLS  SUNNY     82  72  69 SE15G22   29.81F
BAUDETTE       MOSUNNY   74  65  73 SE16      29.89S
WASKISH          N/A     79  68  69 SE10G16   29.89F
CROOKSTON      SUNNY     84  72  65 S20G26    29.78F
STEPHEN NDAWN    N/A     84  72  65 S20         N/A
GREENBUSH NDAW   N/A     81  70  69 SE16        N/A
$$
  *****  WEATHER ACROSS CENTRAL AND WEST MINNESOTA  *****

CITY           SKY/WX    TMP DP  RH WIND       PRES   REMARKS
FOSSTON        SUNNY     82  66  57 S16G23    29.84S
BEMIDJI        SUNNY     77  66  68 SE15G21   29.90S
PARK RAPIDS    MOSUNNY   81  68  64 SE12G23   29.90S
ELBOW LAKE     FAIR      79  72  77 SE16G23   29.85S
WADENA         CLOUDY    75  70  83 SE13      29.90S
DETROIT LAKES  MOSUNNY   79  70  73 S18G24    29.88S
MOORHEAD       SUNNY     84  72  65 S21G29    29.80F
FERGUS FALLS   SUNNY     81  70  69 SE18      29.83F
MORRIS MN      MOSUNNY   79  72  78 SE15      29.84F
STAPLES        CLOUDY    79  68  69 SE12G17   29.90F
$$
  *****  WEATHER ELSEWHERE ACROSS MINNESOTA  *****

CITY           SKY/WX    TMP DP  RH WIND       PRES   REMARKS
DULUTH         FOG       63  62  97 E13       30.00S VSB 1/4
INTRNTL FALLS  SUNNY     76  63  64 SE13      29.93F
ELY            SUNNY     75  61  60 SE7G16    29.99F
CLOQUET        CLOUDY    63  61  94 E8        29.99F FOG
WHEATON        SUNNY     75  70  83 SE13      29.85S
BRAINERD       SUNNY     74  66  76 SE12      29.93F
HIBBING        SUNNY     75  64  68 SE13      29.97F
ALEXANDRIA     CLOUDY    76  71  85 SE15G21   29.90F
SAINT CLOUD    MOSUNNY   79  71  76 SE12      29.91F
MINNEAPOLIS    PTSUNNY   78  71  79 SE8       29.92S
$$

  *****  WEATHER ACROSS SOUTH DAKOTA  *****

CITY           SKY/WX    TMP DP  RH WIND       PRES   REMARKS
SIOUX FALLS    SUNNY     82  71  69 S9        29.84S
BROOKINGS      SUNNY     82  72  69 SE13      29.86S
WATERTOWN      SUNNY     85  71  63 S14       29.84S HX  90
HURON            N/A    N/A N/A N/A MISG      29.79S
SISSETON         N/A     79  70  74 S13       29.82S
ABERDEEN       SUNNY     86  73  65 SE16      29.77S HX  93
MITCHELL       SUNNY     84  72  67 S9        29.81R
PIERRE         SUNNY     90  66  45 SE14      29.73F HX  92
MOBRIDGE       SUNNY     87  66  49 SE14      29.70S
RAPID CITY     MOSUNNY   88  60  38 E6        29.79F
$$

  *****  SOME WEATHER IN NEARBY STATES *****

CITY           SKY/WX    TMP DP  RH WIND       PRES   REMARKS
GLASGOW MT     MOSUNNY   68  43  40 N21       29.79F
GREAT FALLS MT LGT RAIN  56  40  55 NE13      29.93F
CHEYENNE WY    CLOUDY    80  41  24 W9        30.08F
SCOTTSBLUFF NE MOSUNNY   85  53  33 CALM      29.92S
OMAHA NE       MOSUNNY   85  69  58 SE14      29.86F
DES MOINES IA  MOSUNNY   84  70  62 S10       29.91F
DAVENPORT IA   SUNNY     86  73  65 SW9       29.96S HX  93
CHICAGO IL     PTSUNNY   87  70  56 W10       29.94F HX  92
EAU CLAIRE WI  CLOUDY    72  65  78 E8        29.96R
LA CROSSE WI   SUNNY     84  71  65 VRB3      29.92S
$$

  *****  SOME NATIONAL WEATHER *****

CITY           SKY/WX    TMP DP  RH WIND       PRES   REMARKS
LA GUARDIA NY  MOSUNNY   88  65  46 VRB6      29.85F HX  90
RALEIGH NC     PTSUNNY   84  68  58 CALM      29.97F
ATLANTA GA     CLOUDY    83  71  67 W6        30.01F
NEW ORLEANS LA PTSUNNY   82  73  74 NE8       30.01S THUNDER
OKLAHOMA CITY  MOSUNNY   88  66  48 S17       29.99F HX  90
ALBUQUERQUE NM MOSUNNY   74  49  41 W8        30.19S
SALT LAKE CITY PTSUNNY   82  40  22 S25G35    29.91F
LOS ANGELES CA PTSUNNY   70  56  61 S9        29.94S
BOISE ID       PTSUNNY   64  42  44 NW20      29.91F
SEATTLE WA     PTSUNNY   56  49  77 SW7       30.03S
$$

*** WEATHER ACROSS MANITOBA...SASKATCHEWAN AND ONTARIO ***
                ***ONTARIO***

CITY           SKY/WX    TMP DP  RH WIND       PRES   REMARKS
GERALDTON      PTSUNNY   81  57  44 S7        30.05R
THUNDER BAY    SUNNY     75  54  46 E6        30.01S
SIOUX LOOKOUT  MOSUNNY   77  61  57 S7        29.96F
TORONTO        PTSUNNY   84  70  61 VRB2      29.94F
BIG TROUT LK   SUNNY     75  64  69 SW7       29.85R
PICKLE LAKE    MOSUNNY   81  54  39 SW10G18   29.97R
DRYDEN         SUNNY     79  59  50 SE16      29.95F
KENORA         MOSUNNY   77  63  61 S13G21    29.90F
$$
                *** MANITOBA***

CITY           SKY/WX    TMP DP  RH WIND       PRES   REMARKS
BRANDON        CLOUDY    75  72  88 SE16      29.70F
DAUPHIN        PTSUNNY   81  72  74 VRB5      29.69S
ISLAND LAKE    TSTM      72  68  88 NW5       29.82R
PILOT MOUND      N/A     75  68  78 S16G23      N/A
THE PAS        MOSUNNY   73  57  56 W16       29.71R
THOMPSON       PTSUNNY   66  61  82 E3        29.66F
WINNIPEG       CLOUDY    73  70  88 SE13G18   29.77F
LYNN LAKE      CLOUDY    64  59  82 S9        29.63R
CHURCHILL      PTSUNNY   55  52  88 NE9       29.78R
GILLAM         CLOUDY    70  61  73 S7        29.76S
$$
                ***SASKATCHEWAN***

CITY           SKY/WX    TMP DP  RH WIND       PRES   REMARKS
ESTEVAN        PTSUNNY   81  63  54 NE10G18   29.69F
KINDERSLEY     LGT RAIN  50  45  81 W7        29.97R
LLOYDMINSTER   MOSUNNY   54  43  66 NW13      29.90S
PRINCE ALBERT  CLOUDY    59  50  72 W12       29.85R
REGINA         MOSUNNY   68  50  52 N21G28    29.84R
YORKTON        MOSUNNY   70  54  56 NW16G22   29.70R
N. BATTLEFORD  CLOUDY    50  46  87 W8        29.92R
LA RONGE       PTSUNNY   61  48  63 W14G22    29.75R
SASKATOON      CLOUDY    59  45  58 W8        29.90R
SWIFT CURRENT  SUNNY     63  41  45 NW12G17   29.92S
$$
NOTE: THESE ARE AUTOMATED STATIONS WITH LIMITED QUALITY CONTROL
      "FAIR" INDICATES FEW OR NO CLOUDS BELOW 12,000 FEET WITH NO
      SIGNIFICANT WEATHER AND/OR OBSTRUCTIONS TO VISIBILITY.
      SKY/WX - SKY CONDITION AND SIGNIFICANT WEATHER.
      TMP - AIR TEMPERATURE.    DP   - DEWPOINT TEMPERATURE.
      RH  - RELATIVE HUMIDITY.  PRES - PRESSURE.
      HX  - HEAT INDEX.         WCI  - WIND CHILL INDEX.
$


USA.gov is the U.S. government's official web portal to all federal, state and local government web resources and services.